Regional Weather Roundup
Issued by NWS Charleston, WV

Home | Current Version | Previous Version | Text Only | Print | Product List | Glossary On
Versions: 1 2 3 4 5 6 7 8 9 10 11 12 13 14 15 16 17 18 19 20 21 22 23 24 25 26 27 28 29 30 31 32 33 34 35 36 37 38 39 40 41 42 43 44 45 46 47 48 49 50
000
ASUS41 KRLX 212310
RWRRLX
West Virginia Regional Weather Roundup
National Weather Service Charleston WV
600 PM EST SUN DEC 21 2014

Note: "fair" indicates few or no clouds below 12,000 feet with no
significant weather and/or obstructions to visibility.

WVZ003-220000-
Northern Panhandle of West Virginia

CITY           SKY/WX    TMP DP  RH WIND       PRES   REMARKS
WHEELING       PTCLDY    30  22  72 NE8       30.21F
$$

WVZ009-220000-
Northwest West Virginia

CITY           SKY/WX    TMP DP  RH WIND       PRES   REMARKS
PARKERSBURG    MOCLDY    37  24  59 N5        30.22F
$$

WVZ006-220000-
Western West Virginia

CITY           SKY/WX    TMP DP  RH WIND       PRES   REMARKS
HUNTINGTON     PTCLDY    38  27  64 NE3       30.17S
$$

WVZ015-220000-
West Central West Virginia

CITY           SKY/WX    TMP DP  RH WIND       PRES   REMARKS
CHARLESTON     PTCLDY    40  26  57 N3        30.15F
$$

WVZ022-031-220000-
North Central West Virginia

CITY           SKY/WX    TMP DP  RH WIND       PRES   REMARKS
CLARKSBURG     PTCLDY    35  26  69 NE5       30.19F
MORGANTOWN     CLEAR     33  21  61 NE7       30.21F
$$

WVZ025-035-042-045-220000-
Southern West Virginia

CITY           SKY/WX    TMP DP  RH WIND       PRES   REMARKS
BECKLEY        CLEAR     37  28  70 SE7       30.11F
LOGAN            N/A     41  27  56 CALM      30.12S
BLUEFIELD      PTCLDY    40  29  64 SE5       30.12F
LEWISBURG      CLEAR     40  28  64 CALM      30.15R
$$

WVZ047-220000-
Northern Mountains of West Virginia

CITY           SKY/WX    TMP DP  RH WIND       PRES   REMARKS
ELKINS         PTCLDY    30  26  85 CALM      30.16S
$$

WVZ052-220000-
Eastern Panhandle of West Virginia

CITY           SKY/WX    TMP DP  RH WIND       PRES   REMARKS
MARTINSBURG    CLEAR     33  21  61 CALM      30.30R
PETERSBURG     CLEAR     33  26  75 CALM      30.24S
$$


USA.gov is the U.S. government's official web portal to all federal, state and local government web resources and services.